GAOFEN-13 01

Last updated on Sun Apr 12 2026 00:02:55 GMT+0000 (Coordinated Universal Time)

1 46610U 20071A 26101.47266845 -.00000361 00000+0 00000+0 0 9998 2 46610 0.3474 85.0254 0042357 121.7702 281.2366 1.00274863 20250
UTC large
Height (km)
Speed (km/s)
/
Latitude / Longitude
Inclination (degrees)
Orbital Period (minutes)
Azimuth
Elevation
Range (km)
Doppler Factor

Next 0 passes for location: London (51.5072 / 0.1276)

Sorry there are no passes over London.
GAOFEN-13 01